Date String (YYYY-MM-DD hh:mm:ss) UTC,Instrument flags,Ambient pressure (hPa),Sample flow (lpm),Bypass flow (lpm),Sample temperature (°C),Ambient temperature (°C),ASC tube jacket temperature (°C),LED temperature (°C),Box temperature (°C),Sample RH (%),Mass concentration (μg/m³),Mass concentration (μg/m³)
DateTimeUTC,F1_M11,P_M11,Q1_M11,Q2_M11,T1_M11,T2_M11,T3_M11,T4_M11,T5_M11,U1_M11,X0_M11,X2_M11
2021-08-17 16:00:00,,0825.2,5.01,0.00,29.4,28.0,00.0,38.5,31.3,22.5,0033.54,0022.42
2021-08-17 16:01:00,,0825.2,4.99,0.00,29.5,28.2,00.0,38.5,31.3,23.5,0034.15,0022.54
2021-08-17 16:02:00,,0825.2,5.00,0.00,29.5,28.4,00.0,38.5,31.4,23.1,0035.22,0022.67
2021-08-17 16:03:00,,0825.2,5.01,0.00,29.6,28.1,00.0,38.5,31.3,24.2,0036.11,0022.76
2021-08-17 16:04:00,,0825.2,5.01,0.00,29.4,26.5,00.0,38.5,30.9,24.0,0036.98,0022.81
2021-08-17 16:05:00,,0825.2,5.00,0.00,29.3,26.1,00.0,38.5,30.8,24.3,0037.26,0022.86
2021-08-17 16:06:00,,0825.2,5.00,0.00,29.3,26.5,00.0,38.5,30.9,25.0,0038.25,0022.92
2021-08-17 16:07:00,,0825.2,5.01,0.00,29.3,26.9,00.0,38.4,31.0,25.1,0038.01,0023.01
2021-08-17 16:08:00,,0825.2,5.00,0.00,29.3,27.3,00.0,38.4,31.1,24.4,0037.87,0023.08
2021-08-17 16:09:00,,0825.2,5.00,0.00,29.3,27.6,00.0,38.4,31.1,23.7,0037.90,0023.19
2021-08-17 16:10:00,,0825.2,4.99,0.00,29.4,27.9,00.0,38.4,31.2,24.6,0038.07,0023.17
2021-08-17 16:11:00,,0825.2,5.01,0.00,29.4,28.2,00.0,38.4,31.3,24.6,0038.32,0023.14
2021-08-17 16:12:00,,0825.2,5.00,0.00,29.5,28.4,00.0,38.5,31.4,25.6,0037.81,0023.12
2021-08-17 16:13:00,,0825.1,4.99,0.00,29.5,28.5,00.0,38.5,31.4,25.0,0036.62,0023.08
2021-08-17 16:14:00,,0825.1,5.01,0.00,29.5,27.6,00.0,38.5,31.2,25.9,0036.07,0022.98
2021-08-17 16:15:00,,0825.2,5.00,0.00,29.4,26.2,00.0,38.5,30.7,26.4,0034.81,0022.99
2021-08-17 16:16:00,,0825.2,5.00,0.00,29.3,26.2,00.0,38.5,30.7,26.4,0033.92,0023.05
2021-08-17 16:17:00,,0825.2,4.99,0.00,29.3,26.6,00.0,38.4,30.9,25.8,0032.92,0023.09
2021-08-17 16:18:00,,0825.2,5.00,0.00,29.3,27.0,00.0,38.4,30.9,25.7,0033.34,0023.09
2021-08-17 16:19:00,,0825.2,5.01,0.00,29.3,27.4,00.0,38.4,31.1,26.9,0034.35,0023.08
2021-08-17 16:20:00,,0825.2,5.00,0.00,29.3,27.7,00.0,38.4,31.2,27.4,0034.64,0023.08
2021-08-17 16:21:00,,0825.2,5.00,0.00,29.4,28.0,00.0,38.4,31.2,27.1,0035.22,0023.13
2021-08-17 16:22:00,,0825.2,5.01,0.00,29.4,28.2,00.0,38.4,31.3,27.5,0036.32,0023.13
2021-08-17 16:23:00,,0825.2,5.00,0.00,29.5,28.4,00.0,38.4,31.4,28.3,0037.40,0023.14
2021-08-17 16:24:00,,0825.2,4.99,0.00,29.5,28.4,00.0,38.5,31.4,28.2,0038.38,0023.18
2021-08-17 16:25:00,,0825.2,5.01,0.00,29.5,27.0,00.0,38.5,30.9,27.6,0037.32,0023.21
2021-08-17 16:26:00,,0825.2,5.00,0.00,29.3,26.0,00.0,38.4,30.6,28.1,0038.71,0023.23
2021-08-17 16:27:00,,0825.2,4.99,0.00,29.2,26.4,00.0,38.4,30.7,28.3,0039.44,0023.30
2021-08-17 16:28:00,,0825.2,5.01,0.00,29.2,26.7,00.0,38.4,30.9,28.7,0039.73,0023.37
2021-08-17 16:29:00,,0825.2,5.00,0.00,29.2,27.1,00.0,38.4,31.0,28.6,0040.51,0023.35
2021-08-17 16:30:00,,0825.1,5.00,0.00,29.3,27.5,00.0,38.4,31.1,28.7,0041.18,0023.36
2021-08-17 16:31:00,,0825.2,4.99,0.00,29.3,27.8,00.0,38.4,31.2,28.4,0042.32,0023.38
2021-08-17 16:32:00,,0825.2,5.01,0.00,29.4,28.1,00.0,38.4,31.3,28.7,0043.13,0023.36
2021-08-17 16:33:00,,0825.1,4.99,0.00,29.4,28.3,00.0,38.4,31.3,28.6,0043.05,0023.40
2021-08-17 16:34:00,,0825.1,5.00,0.00,29.5,27.9,00.0,38.4,31.2,28.4,0042.69,0023.39
2021-08-17 16:35:00,,0825.1,5.00,0.00,29.3,26.4,00.0,38.4,30.7,27.6,0042.91,0023.37
2021-08-17 16:36:00,,0825.1,5.00,0.00,29.2,26.1,00.0,38.4,30.7,27.6,0043.86,0023.36
2021-08-17 16:37:00,,0825.1,4.99,0.00,29.2,26.5,00.0,38.4,30.8,27.7,0043.32,0023.26
2021-08-17 16:38:00,,0825.1,4.99,0.00,29.2,26.9,00.0,38.3,30.9,28.2,0043.64,0023.19
2021-08-17 16:39:00,,0825.1,4.99,0.00,29.2,27.3,00.0,38.3,31.0,27.6,0043.33,0023.12
2021-08-17 16:40:00,,0825.1,5.01,0.00,29.2,27.6,00.0,38.3,31.1,26.9,0042.92,0023.11
2021-08-17 16:41:00,,0825.0,4.99,0.00,29.3,27.9,00.0,38.3,31.2,26.9,0042.02,0023.01
2021-08-17 16:42:00,,0825.1,5.01,0.00,29.3,28.2,00.0,38.3,31.3,27.3,0041.00,0022.87
2021-08-17 16:43:00,,0825.1,5.00,0.00,29.4,28.4,00.0,38.4,31.4,27.7,0039.12,0022.80
2021-08-17 16:44:00,,0825.0,5.01,0.00,29.4,28.1,00.0,38.4,31.3,27.1,0037.99,0022.72
2021-08-17 16:45:00,,0825.0,5.00,0.00,29.3,26.6,00.0,38.4,30.8,27.5,0037.88,0022.65
2021-08-17 16:46:00,,0825.0,5.00,0.00,29.2,26.1,00.0,38.3,30.6,27.8,0038.28,0022.60
2021-08-17 16:47:00,,0825.0,5.00,0.00,29.2,26.5,00.0,38.3,30.7,27.8,0038.64,0022.57
2021-08-17 16:48:00,,0825.0,5.00,0.00,29.2,26.9,00.0,38.3,30.8,28.1,0039.57,0022.62
2021-08-17 16:49:00,,0825.0,5.01,0.00,29.2,27.2,00.0,38.3,30.9,27.7,0039.44,0022.57
2021-08-17 16:50:00,,0825.0,5.01,0.00,29.2,27.6,00.0,38.3,31.0,27.6,0039.45,0022.51
2021-08-17 16:51:00,,0825.1,5.00,0.00,29.3,27.9,00.0,38.3,31.1,27.9,0040.18,0022.48
2021-08-17 16:52:00,,0825.0,5.00,0.00,29.3,28.1,00.0,38.3,31.2,27.8,0040.21,0022.50
2021-08-17 16:53:00,,0825.0,5.00,0.00,29.3,27.2,00.0,38.3,30.9,27.3,0040.28,0022.52
2021-08-17 16:54:00,,0824.9,5.00,0.00,29.2,26.0,00.0,38.3,30.5,27.2,0040.64,0022.61
2021-08-17 16:55:00,,0824.9,5.01,0.00,29.1,26.1,00.0,38.3,30.5,26.6,0040.63,0022.58
2021-08-17 16:56:00,,0824.9,5.00,0.00,29.1,26.5,00.0,38.2,30.7,26.8,0039.99,0022.51
2021-08-17 16:57:00,,0824.9,5.00,0.00,29.1,26.9,00.0,38.2,30.8,27.7,0040.40,0022.51
2021-08-17 16:58:00,,0824.9,5.00,0.00,29.1,27.3,00.0,38.2,30.9,27.7,0040.13,0022.53
2021-08-17 16:59:00,,0824.9,4.99,0.00,29.2,27.6,00.0,38.2,31.0,27.6,0038.44,0022.54
